Weather History for Dayton, OH

Change the Weather History Date:

Saturday, July 26, 2014

  Actual Average Record
Temperature  
Mean Temperature 75 °F 74 °F  
Max Temperature 83 °F 84 °F 101 °F (1901)
Min Temperature 66 °F 64 °F 52 °F (1977)
Degree Days  
Heating Degree Days 0 0  
Month to date heating degree days 2 0  
Since 1 June heating degree days 4 22  
Since 1 July heating degree days 2 0  
Cooling Degree Days 10 9  
Month to date cooling degree days 171 234  
Year to date cooling degree days 563 494  
Since 1 June cooling degree days 434 424  
Growing Degree Days 24 (Base 50)    
Moisture  
Dew Point 66 °F    
Average Humidity 72    
Maximum Humidity 81    
Minimum Humidity 62    
Precipitation  
Precipitation 0.04 in 0.12 in 1.45 in (1992)
Month to date precipitation 3.20 3.55  
Year to date precipitation 24.81 24.76  
Snow  
Snow 0.00 in 0.00 in 0.00 in ()
Month to date snowfall 0.0 0.0  
Since 1 June snowfall 0.0 0.0  
Since 1 July snowfall 0.0 0.0  
Snow Depth 0.00 in    
Sea Level Pressure  
Sea Level Pressure 29.92 in    
Wind  
Wind Speed 9 mph (SSW)    
Max Wind Speed 18 mph    
Max Gust Speed 23 mph    
Visibility 9 miles    
Events Rain , Thunderstorm    
T = Trace of Precipitation, MM = Missing Value Source: NWS Daily Summary

Daily Weather History Graph

Daily Weather History Graph

Search for Another Location

Airport:

Trip Planner

Search our weather history database for the weather conditions in past years. The results will help you decide how hot, cold, wet, or windy it might be!

Date:

Astronomy

Jul. 26, 2014 Rise Set
Actual Time 6:30 AM EDT 8:56 PM EDT
Civil Twilight 5:59 AM EDT 9:26 PM EDT
Nautical Twilight 5:21 AM EDT 10:04 PM EDT
Astronomical Twilight 4:38 AM EDT 10:47 PM EDT
Moon 6:21 AM EDT (7/26) 8:30 PM EDT (7/26)
Length of Visible Light 15h 27m
Length of Day
14h 26m
Waning Crescent, 0% of the Moon is Illuminated
Jul 26
Waning Crescent
Jul 26
New
Aug 3
First Quarter
Aug 10
Full
Aug 17
Last Quarter

Hourly Weather History & Observations

Time (EDT) Temp. Heat Index Dew Point Humidity Pressure Visibility Wind Dir Wind Speed Gust Speed Precip Events Conditions
12:56 AM 70.0 °F - 59.0 °F 68% 30.01 in 10.0 mi Calm Calm - N/A   Overcast
1:56 AM 69.1 °F - 59.0 °F 70% 30.01 in 10.0 mi SSE 3.5 mph - N/A   Overcast
2:56 AM 66.9 °F - 59.0 °F 76% 29.99 in 10.0 mi SSE 3.5 mph - N/A   Overcast
3:56 AM 66.0 °F - 60.1 °F 81% 29.97 in 10.0 mi SE 3.5 mph - N/A   Overcast
4:56 AM 68.0 °F - 61.0 °F 78% 29.96 in 10.0 mi SSE 4.6 mph - N/A   Overcast
5:56 AM 66.9 °F - 60.1 °F 79% 29.96 in 10.0 mi SSE 5.8 mph - N/A   Overcast
6:56 AM 68.0 °F - 60.1 °F 76% 29.95 in 10.0 mi SSE 5.8 mph - N/A   Mostly Cloudy
7:56 AM 69.1 °F - 61.0 °F 75% 29.95 in 10.0 mi South 9.2 mph - N/A   Mostly Cloudy
8:56 AM 71.1 °F - 62.1 °F 73% 29.96 in 10.0 mi SSW 9.2 mph - N/A   Mostly Cloudy
9:56 AM 73.9 °F - 62.1 °F 66% 29.96 in 10.0 mi SSW 9.2 mph - N/A   Mostly Cloudy
11:56 AM 77.0 °F - 64.0 °F 64% 29.95 in 10.0 mi SSW 12.7 mph 21.9 mph N/A   Overcast
2:22 PM 80.6 °F 82.7 °F 66.2 °F 61% 29.92 in 10.0 mi SSW 15.0 mph - N/A   Mostly Cloudy
2:56 PM 82.0 °F 84.9 °F 68.0 °F 62% 29.87 in 10.0 mi South 11.5 mph 20.7 mph N/A   Overcast
3:56 PM 80.1 °F 82.7 °F 68.0 °F 67% 29.86 in 10.0 mi SSW 11.5 mph 18.4 mph N/A   Overcast
4:56 PM 79.0 °F - 69.1 °F 72% 29.86 in 9.0 mi SW 11.5 mph - N/A   Overcast
5:52 PM 80.6 °F 83.9 °F 69.8 °F 70% 29.87 in 8.0 mi South 9.2 mph - N/A   Mostly Cloudy
5:56 PM 81.0 °F 84.4 °F 70.0 °F 69% 29.86 in 8.0 mi South 6.9 mph - N/A   Mostly Cloudy
6:56 PM 80.1 °F 83.2 °F 70.0 °F 71% 29.86 in 7.0 mi South 8.1 mph - N/A   Overcast
7:56 PM 81.0 °F 84.9 °F 71.1 °F 72% 29.86 in 8.0 mi SSW 11.5 mph - N/A   Overcast
8:56 PM 80.1 °F 83.6 °F 71.1 °F 74% 29.86 in 8.0 mi SW 6.9 mph - N/A   Overcast
9:56 PM 80.1 °F 83.6 °F 71.1 °F 74% 29.87 in 9.0 mi WSW 12.7 mph - N/A   Overcast
10:27 PM 78.8 °F - 71.6 °F 78% 29.91 in 7.0 mi WSW 11.5 mph - 0.00 in Rain , Thunderstorm Light Thunderstorms and Rain
10:56 PM 77.0 °F - 73.0 °F 88% 29.87 in 5.0 mi WSW 17.3 mph - 0.03 in Rain , Thunderstorm Light Thunderstorms and Rain
11:14 PM 77.0 °F - 73.4 °F 89% 29.88 in 6.0 mi West 13.8 mph - 0.01 in Rain Light Rain
11:56 PM 73.9 °F - 70.0 °F 87% 29.82 in 9.0 mi WSW 4.6 mph - 0.01 in   Mostly Cloudy